Location: Gwatt
(46.7204°N, 7.6223°E)
Time: 17:39:49
(UTC+00:00)

deb Explorer IX - Pass Details

Date: 27 January 2021
Orbit: 537 x 1102 km, 38.8° (Epoch: 04 March)

Event Time Altitude Azimuth Distance (km) Brightness Sun altitude
Rises 18:41:33 0° 262° (W) 3,682 ? -23.2°
Reaches altitude 10° 18:44:32 10° 254° (WSW) 2,647 ? -23.7°
Maximum altitude 18:50:14 36° 190° (S) 1,297 ? -24.7°
Enters shadow 18:51:35 32° 161° (SSE) 1,371 ? -24.9°
Drops below altitude 10° 18:55:10 10° 125° (SE) 2,279 - -25.5°
Sets 18:57:34 0° 116° (ESE) 3,111 - -26.0°
